User: anonymous   Login
Location: Unspecified
(0.0000°N, 0.0000°E)
Time: 19:57:55
(UTC+00:00)
Language:

Resurs 1-3 - Orbit

View from above orbital plane
View from above orbital plane
View from above satellite
View from above satellite

Ground track
Ground track

The orbit data is extracted from the following two-line orbital elements,

1 23342U 94074A   17144.87932758 +.00000061 +00000-0 +15334-4 0  9991
2 23342 098.0802 182.9983 0001558 114.4428 245.6945 14.79265962214065
Epoch (UTC): 24 May 2017 21:06:13
Eccentricity: 0.0001558
inclination: 98.0802°
perigee height: 630 km
apogee height: 633 km
right ascension of ascending node: 182.9983°
argument of perigee: 114.4428°
revolutions per day: 14.79265962
mean anomaly at epoch: 245.6945°
orbit number at epoch: 21406

The dashed part of the orbit path shows where the satellite is in the earth's shadow,  

DLR